Wetterdaten: aktuell Mittwoch, 20.11.2019 02:40
Datum Zeit Temp. I. Temp. A. Feuchte A. Luftdruck Regen Wind Richtung Richtung Sonnenschein Taupunkt Windchill Windben
20.11.2019 02:40 21,0 C 6,0 C 77 % 1015,1 hPa 0,0 l/m 1,0 km/h (0 Bft) W-SW 247 0 min 2,3 C 6,0 C 0,0 km/h (0 Bft)
20.11.2019 02:30 21,0 C 6,1 C 77 % 1015,1 hPa 0,0 l/m 1,4 km/h (1 Bft) W-SW 247 0 min 2,4 C 6,1 C 3,9 km/h (1 Bft)
20.11.2019 02:20 21,0 C 6,1 C 77 % 1015,1 hPa 0,0 l/m 1,8 km/h (1 Bft) W-SW 247 0 min 2,4 C 6,1 C 2,7 km/h (1 Bft)
20.11.2019 02:10 21,1 C 6,0 C 77 % 1015,1 hPa 0,0 l/m 1,4 km/h (1 Bft) W-SW 247 0 min 2,3 C 6,0 C 5,1 km/h (1 Bft)
20.11.2019 02:00 21,1 C 6,0 C 76 % 1014,8 hPa 0,0 l/m 1,0 km/h (0 Bft) W-SW 247 0 min 2,1 C 6,0 C 2,7 km/h (1 Bft)
20.11.2019 01:50 21,1 C 6,1 C 75 % 1014,8 hPa 0,0 l/m 0,6 km/h (0 Bft) W 270 0 min 2,0 C 6,1 C 0,0 km/h (0 Bft)
20.11.2019 01:40 21,2 C 6,1 C 75 % 1015,0 hPa 0,0 l/m 0,8 km/h (0 Bft) NW 315 0 min 2,0 C 6,1 C 0,0 km/h (0 Bft)
20.11.2019 01:30 21,2 C 6,1 C 75 % 1015,0 hPa 0,0 l/m 0,2 km/h (0 Bft) W 270 0 min 2,0 C 6,1 C 1,6 km/h (1 Bft)
20.11.2019 01:20 21,2 C 6,1 C 75 % 1015,1 hPa 0,0 l/m 0,5 km/h (0 Bft) W 270 0 min 2,0 C 6,1 C 0,0 km/h (0 Bft)
20.11.2019 01:10 21,2 C 6,2 C 74 % 1015,1 hPa 0,0 l/m 0,8 km/h (0 Bft) W-NW 292 0 min 1,9 C 6,2 C 1,8 km/h (1 Bft)
20.11.2019 01:00 21,2 C 6,2 C 74 % 1015,2 hPa 0,0 l/m 1,0 km/h (0 Bft) W-NW 292 0 min 1,9 C 6,2 C 1,9 km/h (1 Bft)
20.11.2019 00:50 21,3 C 6,2 C 74 % 1015,2 hPa 0,0 l/m 0,6 km/h (0 Bft) W 270 0 min 1,9 C 6,2 C 2,7 km/h (1 Bft)
20.11.2019 00:40 21,2 C 6,3 C 74 % 1015,5 hPa 0,0 l/m 0,8 km/h (0 Bft) W-NW 292 0 min 2,0 C 6,3 C 3,9 km/h (1 Bft)
20.11.2019 00:30 21,2 C 6,3 C 74 % 1015,5 hPa 0,0 l/m 0,8 km/h (0 Bft) W 270 0 min 2,0 C 6,3 C 3,2 km/h (1 Bft)
20.11.2019 00:20 21,4 C 6,4 C 74 % 1015,4 hPa 0,0 l/m 1,0 km/h (0 Bft) NW 315 0 min 2,1 C 6,4 C 1,8 km/h (1 Bft)
20.11.2019 00:10 21,4 C 6,4 C 74 % 1015,4 hPa 0,0 l/m 1,3 km/h (1 Bft) W 270 0 min 2,1 C 6,4 C 2,7 km/h (1 Bft)
20.11.2019 00:00 21,5 C 6,4 C 74 % 1015,6 hPa 0,0 l/m 1,1 km/h (1 Bft) W-NW 292 0 min 2,1 C 6,4 C 0,0 km/h (0 Bft)
19.11.2019 23:50 21,5 C 6,4 C 74 % 1015,6 hPa 0,0 l/m 1,0 km/h (0 Bft) NW 315 0 min 2,1 C 6,4 C 0,0 km/h (0 Bft)
19.11.2019 23:40 21,6 C 6,4 C 74 % 1015,7 hPa 0,0 l/m 1,0 km/h (0 Bft) W 270 0 min 2,1 C 6,4 C 0,0 km/h (0 Bft)
19.11.2019 23:30 21,6 C 6,4 C 74 % 1015,7 hPa 0,0 l/m 1,1 km/h (1 Bft) NW 315 0 min 2,1 C 6,4 C 0,0 km/h (0 Bft)
19.11.2019 23:20 21,6 C 6,4 C 74 % 1015,8 hPa 0,0 l/m 0,5 km/h (0 Bft) W 270 0 min 2,1 C 6,4 C 2,1 km/h (1 Bft)
19.11.2019 23:10 21,6 C 6,3 C 73 % 1015,8 hPa 0,0 l/m 0,6 km/h (0 Bft) W 270 0 min 1,8 C 6,3 C 0,0 km/h (0 Bft)
19.11.2019 23:00 21,6 C 6,3 C 73 % 1015,8 hPa 0,0 l/m 1,3 km/h (1 Bft) W 270 0 min 1,8 C 6,3 C 2,3 km/h (1 Bft)
19.11.2019 22:50 21,6 C 6,4 C 73 % 1015,8 hPa 0,0 l/m 1,9 km/h (1 Bft) W 270 0 min 1,9 C 6,4 C 3,2 km/h (1 Bft)
19.11.2019 22:40 21,6 C 6,4 C 73 % 1016,1 hPa 0,0 l/m 1,0 km/h (0 Bft) NW 315 0 min 1,9 C 6,4 C 2,3 km/h (1 Bft)
19.11.2019 22:30 21,7 C 6,4 C 73 % 1016,1 hPa 0,0 l/m 1,1 km/h (1 Bft) W-NW 292 0 min 1,9 C 6,4 C 1,6 km/h (1 Bft)
19.11.2019 22:20 21,7 C 6,5 C 73 % 1015,9 hPa 0,0 l/m 1,6 km/h (1 Bft) W-NW 292 0 min 2,0 C 6,5 C 2,7 km/h (1 Bft)
19.11.2019 22:10 21,7 C 6,6 C 72 % 1015,9 hPa 0,0 l/m 1,1 km/h (1 Bft) W 270 0 min 1,9 C 6,6 C 1,8 km/h (1 Bft)
19.11.2019 22:00 21,7 C 6,6 C 72 % 1015,9 hPa 0,0 l/m 1,6 km/h (1 Bft) W 270 0 min 1,9 C 6,6 C 1,6 km/h (1 Bft)
19.11.2019 21:50 21,8 C 6,7 C 72 % 1015,9 hPa 0,0 l/m 1,3 km/h (1 Bft) W-NW 292 0 min 2,0 C 6,7 C 3,1 km/h (1 Bft)
19.11.2019 21:40 21,8 C 6,7 C 73 % 1015,9 hPa 0,0 l/m 0,0 km/h (0 Bft) W-NW 292 0 min 2,2 C 6,7 C 0,0 km/h (0 Bft)
19.11.2019 21:30 21,8 C 6,6 C 72 % 1015,9 hPa 0,0 l/m 0,6 km/h (0 Bft) W 270 0 min 1,9 C 6,6 C 0,0 km/h (0 Bft)
19.11.2019 21:20 21,8 C 6,7 C 72 % 1016,0 hPa 0,0 l/m 0,5 km/h (0 Bft) W 270 0 min 2,0 C 6,7 C 3,2 km/h (1 Bft)
19.11.2019 21:10 21,8 C 6,7 C 73 % 1016,0 hPa 0,0 l/m 0,3 km/h (0 Bft) SW 225 0 min 2,2 C 6,7 C 0,0 km/h (0 Bft)
19.11.2019 21:00 21,8 C 6,8 C 73 % 1016,1 hPa 0,0 l/m 0,0 km/h (0 Bft) W 270 0 min 2,3 C 6,8 C 0,0 km/h (0 Bft)
19.11.2019 20:50 21,8 C 6,8 C 73 % 1016,1 hPa 0,0 l/m 0,0 km/h (0 Bft) W 270 0 min 2,3 C 6,8 C 0,0 km/h (0 Bft)
19.11.2019 20:40 21,8 C 6,7 C 74 % 1016,0 hPa 0,0 l/m 0,0 km/h (0 Bft) W-SW 247 0 min 2,4 C 6,7 C 0,0 km/h (0 Bft)
19.11.2019 20:30 21,8 C 6,7 C 74 % 1016,0 hPa 0,0 l/m 0,0 km/h (0 Bft) W-SW 247 0 min 2,4 C 6,7 C 0,0 km/h (0 Bft)
19.11.2019 20:20 21,8 C 6,7 C 74 % 1015,9 hPa 0,0 l/m 0,0 km/h (0 Bft) W-SW 247 0 min 2,4 C 6,7 C 0,0 km/h (0 Bft)
19.11.2019 20:10 21,9 C 6,6 C 74 % 1015,9 hPa 0,0 l/m 0,0 km/h (0 Bft) W-SW 247 0 min 2,3 C 6,6 C 0,0 km/h (0 Bft)
19.11.2019 20:00 21,9 C 6,6 C 74 % 1015,9 hPa 0,0 l/m 0,0 km/h (0 Bft) W-SW 247 0 min 2,3 C 6,6 C 0,0 km/h (0 Bft)
19.11.2019 19:50 21,9 C 6,6 C 73 % 1015,9 hPa 0,0 l/m 0,0 km/h (0 Bft) W-SW 247 0 min 2,1 C 6,6 C 0,0 km/h (0 Bft)
19.11.2019 19:40 22,0 C 6,7 C 72 % 1016,1 hPa 0,0 l/m 0,0 km/h (0 Bft) W-SW 247 0 min 2,0 C 6,7 C 0,0 km/h (0 Bft)
19.11.2019 19:30 22,0 C 6,7 C 73 % 1016,1 hPa 0,0 l/m 0,0 km/h (0 Bft) W-SW 247 0 min 2,2 C 6,7 C 0,0 km/h (0 Bft)
19.11.2019 19:20 22,0 C 6,7 C 73 % 1015,9 hPa 0,0 l/m 0,0 km/h (0 Bft) W-SW 247 0 min 2,2 C 6,7 C 0,0 km/h (0 Bft)
19.11.2019 19:10 22,0 C 6,8 C 73 % 1015,9 hPa 0,0 l/m 0,0 km/h (0 Bft) W-SW 247 0 min 2,3 C 6,8 C 0,0 km/h (0 Bft)
19.11.2019 19:00 22,0 C 6,7 C 73 % 1016,2 hPa 0,0 l/m 0,0 km/h (0 Bft) W 270 0 min 2,2 C 6,7 C 0,0 km/h (0 Bft)
19.11.2019 18:50 22,0 C 6,8 C 73 % 1016,2 hPa 0,0 l/m 0,0 km/h (0 Bft) W 270 0 min 2,3 C 6,8 C 0,0 km/h (0 Bft)
19.11.2019 18:40 22,1 C 6,7 C 73 % 1015,9 hPa 0,0 l/m 0,0 km/h (0 Bft) W 270 0 min 2,2 C 6,7 C 0,0 km/h (0 Bft)
19.11.2019 18:30 22,1 C 6,7 C 73 % 1015,9 hPa 0,0 l/m 0,0 km/h (0 Bft) W-NW 292 0 min 2,2 C 6,7 C 0,0 km/h (0 Bft)
19.11.2019 18:20 22,1 C 6,7 C 72 % 1015,7 hPa 0,0 l/m 0,0 km/h (0 Bft) W-NW 292 0 min 2,0 C 6,7 C 0,0 km/h (0 Bft)
19.11.2019 18:10 22,2 C 6,7 C 72 % 1015,7 hPa 0,0 l/m 0,0 km/h (0 Bft) W-NW 292 0 min 2,0 C 6,7 C 0,0 km/h (0 Bft)
19.11.2019 18:00 22,2 C 6,7 C 71 % 1015,8 hPa 0,0 l/m 0,0 km/h (0 Bft) W-NW 292 0 min 1,8 C 6,7 C 0,0 km/h (0 Bft)
19.11.2019 17:50 22,2 C 6,9 C 71 % 1015,8 hPa 0,0 l/m 0,0 km/h (0 Bft) W-NW 292 0 min 2,0 C 6,9 C 0,0 km/h (0 Bft)
19.11.2019 17:40 22,3 C 7,0 C 70 % 1015,9 hPa 0,0 l/m 0,0 km/h (0 Bft) W-NW 292 0 min 1,9 C 7,0 C 0,0 km/h (0 Bft)
19.11.2019 17:30 22,2 C 7,1 C 70 % 1015,9 hPa 0,0 l/m 0,0 km/h (0 Bft) W-NW 292 0 min 2,0 C 7,1 C 0,0 km/h (0 Bft)
19.11.2019 17:20 22,4 C 7,1 C 70 % 1016,1 hPa 0,0 l/m 0,0 km/h (0 Bft) W-NW 292 0 min 2,0 C 7,1 C 0,0 km/h (0 Bft)
19.11.2019 17:10 22,4 C 7,1 C 70 % 1016,1 hPa 0,0 l/m 0,0 km/h (0 Bft) W-NW 292 0 min 2,0 C 7,1 C 0,0 km/h (0 Bft)
19.11.2019 17:00 22,5 C 7,1 C 70 % 1016,1 hPa 0,0 l/m 0,0 km/h (0 Bft) W-NW 292 0 min 2,0 C 7,1 C 0,0 km/h (0 Bft)
19.11.2019 16:50 22,5 C 7,1 C 70 % 1016,1 hPa 0,0 l/m 0,0 km/h (0 Bft) W-NW 292 0 min 2,0 C 7,1 C 0,0 km/h (0 Bft)
19.11.2019 16:40 22,6 C 7,2 C 69 % 1016,0 hPa 0,0 l/m 0,0 km/h (0 Bft) W-NW 292 0 min 1,9 C 7,2 C 0,0 km/h (0 Bft)
19.11.2019 16:30 22,6 C 7,2 C 69 % 1016,0 hPa 0,0 l/m 0,0 km/h (0 Bft) W-NW 292 0 min 1,9 C 7,2 C 0,0 km/h (0 Bft)
19.11.2019 16:20 22,7 C 7,3 C 67 % 1016,0 hPa 0,0 l/m 0,0 km/h (0 Bft) N-NW 337 0 min 1,6 C 7,3 C 0,0 km/h (0 Bft)
19.11.2019 16:10 22,8 C 7,2 C 68 % 1016,0 hPa 0,0 l/m 0,0 km/h (0 Bft) NW 315 0 min 1,7 C 7,2 C 0,0 km/h (0 Bft)
19.11.2019 16:00 22,8 C 6,9 C 69 % 1016,2 hPa 0,0 l/m 0,0 km/h (0 Bft) W 270 0 min 1,6 C 6,9 C 0,0 km/h (0 Bft)
19.11.2019 15:50 23,0 C 6,7 C 68 % 1016,2 hPa 0,0 l/m 0,0 km/h (0 Bft) W 270 0 min 1,2 C 6,7 C 0,0 km/h (0 Bft)
19.11.2019 15:40 23,1 C 6,6 C 67 % 1016,2 hPa 0,0 l/m 0,0 km/h (0 Bft) W 270 10 min 0,9 C 6,6 C 0,0 km/h (0 Bft)
19.11.2019 15:30 23,2 C 7,0 C 65 % 1016,2 hPa 0,0 l/m 0,2 km/h (0 Bft) W-NW 292 10 min 0,9 C 7,0 C 0,0 km/h (0 Bft)
19.11.2019 15:20 23,2 C 7,5 C 64 % 1016,4 hPa 0,0 l/m 0,3 km/h (0 Bft) W 270 0 min 1,1 C 7,5 C 1,8 km/h (1 Bft)
19.11.2019 15:10 23,4 C 7,7 C 63 % 1016,4 hPa 0,0 l/m 0,6 km/h (0 Bft) W 270 10 min 1,1 C 7,7 C 2,1 km/h (1 Bft)
19.11.2019 15:00 23,4 C 7,9 C 63 % 1016,4 hPa 0,0 l/m 1,0 km/h (0 Bft) NW 315 10 min 1,3 C 7,9 C 0,0 km/h (0 Bft)
19.11.2019 14:50 23,4 C 7,9 C 63 % 1016,4 hPa 0,0 l/m 0,5 km/h (0 Bft) N-NW 337 10 min 1,3 C 7,9 C 3,1 km/h (1 Bft)
19.11.2019 14:40 23,5 C 8,0 C 63 % 1016,8 hPa 0,0 l/m 1,1 km/h (1 Bft) NW 315 0 min 1,4 C 8,0 C 0,0 km/h (0 Bft)
19.11.2019 14:30 23,6 C 8,3 C 63 % 1016,8 hPa 0,0 l/m 1,6 km/h (1 Bft) W 270 0 min 1,7 C 8,3 C 2,6 km/h (1 Bft)
19.11.2019 14:20 23,8 C 8,6 C 64 % 1017,2 hPa 0,0 l/m 0,8 km/h (0 Bft) W 270 0 min 2,2 C 8,6 C 0,0 km/h (0 Bft)
19.11.2019 14:10 23,9 C 8,6 C 64 % 1017,2 hPa 0,0 l/m 0,5 km/h (0 Bft) W-SW 247 0 min 2,2 C 8,6 C 0,0 km/h (0 Bft)
19.11.2019 14:00 24,1 C 8,2 C 64 % 1017,5 hPa 0,0 l/m 1,1 km/h (1 Bft) W 270 0 min 1,8 C 8,2 C 2,9 km/h (1 Bft)
19.11.2019 13:50 24,4 C 8,0 C 64 % 1017,5 hPa 0,0 l/m 2,1 km/h (1 Bft) SW 225 10 min 1,6 C 8,0 C 0,0 km/h (0 Bft)
19.11.2019 13:40 24,6 C 7,8 C 65 % 1017,6 hPa 0,0 l/m 2,7 km/h (1 Bft) W 270 10 min 1,6 C 7,8 C 5,1 km/h (1 Bft)
19.11.2019 13:30 24,6 C 7,6 C 65 % 1017,6 hPa 0,0 l/m 2,4 km/h (1 Bft) W-SW 247 10 min 1,5 C 7,6 C 4,2 km/h (1 Bft)
19.11.2019 13:20 24,7 C 7,6 C 64 % 1017,8 hPa 0,0 l/m 3,2 km/h (1 Bft) SW 225 10 min 1,2 C 7,6 C 2,3 km/h (1 Bft)
19.11.2019 13:10 24,8 C 7,8 C 64 % 1017,8 hPa 0,0 l/m 3,5 km/h (1 Bft) W-SW 247 10 min 1,4 C 7,8 C 4,2 km/h (1 Bft)
19.11.2019 13:00 24,6 C 7,9 C 62 % 1017,9 hPa 0,0 l/m 3,5 km/h (1 Bft) W 270 10 min 1,1 C 7,9 C 3,7 km/h (1 Bft)
19.11.2019 12:50 24,4 C 7,9 C 62 % 1017,9 hPa 0,0 l/m 3,9 km/h (1 Bft) W-SW 247 10 min 1,1 C 7,9 C 5,8 km/h (2 Bft)
19.11.2019 12:40 24,4 C 8,0 C 60 % 1017,8 hPa 0,0 l/m 3,4 km/h (1 Bft) S-SW 202 10 min 0,7 C 8,0 C 6,8 km/h (2 Bft)
19.11.2019 12:30 24,4 C 7,9 C 60 % 1017,8 hPa 0,0 l/m 4,5 km/h (1 Bft) SW 225 10 min 0,6 C 7,9 C 4,7 km/h (1 Bft)
19.11.2019 12:20 24,3 C 8,1 C 61 % 1018,0 hPa 0,0 l/m 4,8 km/h (1 Bft) SW 225 10 min 1,0 C 8,1 C 7,7 km/h (2 Bft)
19.11.2019 12:10 24,1 C 7,6 C 63 % 1018,0 hPa 0,0 l/m 4,3 km/h (1 Bft) S-SW 202 10 min 1,0 C 7,6 C 6,0 km/h (2 Bft)
19.11.2019 12:00 24,1 C 7,6 C 62 % 1017,9 hPa 0,0 l/m 4,5 km/h (1 Bft) W-SW 247 10 min 0,8 C 7,6 C 5,8 km/h (2 Bft)
19.11.2019 11:50 24,1 C 7,7 C 60 % 1017,9 hPa 0,0 l/m 4,2 km/h (1 Bft) SW 225 10 min 0,4 C 7,7 C 4,3 km/h (1 Bft)
19.11.2019 11:40 23,9 C 7,8 C 60 % 1018,0 hPa 0,0 l/m 5,1 km/h (1 Bft) W 270 10 min 0,5 C 7,8 C 6,8 km/h (2 Bft)
19.11.2019 11:30 23,6 C 7,7 C 59 % 1018,0 hPa 0,0 l/m 5,6 km/h (1 Bft) SO 135 10 min 0,2 C 7,7 C 11,6 km/h (2 Bft)
19.11.2019 11:20 23,5 C 7,8 C 59 % 1017,8 hPa 0,0 l/m 5,5 km/h (1 Bft) SO 135 10 min 0,3 C 7,8 C 5,1 km/h (1 Bft)
19.11.2019 11:10 23,4 C 7,9 C 60 % 1017,8 hPa 0,0 l/m 4,3 km/h (1 Bft) W-SW 247 10 min 0,6 C 7,9 C 6,9 km/h (2 Bft)
19.11.2019 11:00 23,2 C 7,6 C 60 % 1017,4 hPa 0,0 l/m 6,1 km/h (2 Bft) S-SO 157 10 min 0,3 C 7,6 C 5,0 km/h (1 Bft)
19.11.2019 10:50 23,0 C 7,5 C 60 % 1017,4 hPa 0,0 l/m 6,8 km/h (2 Bft) O-SO 112 10 min 0,2 C 7,2 C 11,6 km/h (2 Bft)
19.11.2019 10:40 22,8 C 7,2 C 62 % 1017,2 hPa 0,0 l/m 5,6 km/h (1 Bft) SO 135 10 min 0,4 C 7,2 C 6,0 km/h (2 Bft)
19.11.2019 10:30 22,7 C 7,0 C 62 % 1017,2 hPa 0,0 l/m 7,1 km/h (2 Bft) W 270 10 min 0,2 C 6,4 C 13,0 km/h (3 Bft)
19.11.2019 10:20 22,4 C 6,8 C 63 % 1016,9 hPa 0,0 l/m 7,6 km/h (2 Bft) SW 225 10 min 0,3 C 5,8 C 8,2 km/h (2 Bft)
19.11.2019 10:10 22,1 C 6,7 C 64 % 1016,9 hPa 0,0 l/m 6,3 km/h (2 Bft) SO 135 10 min 0,4 C 6,7 C 10,8 km/h (2 Bft)
19.11.2019 10:00 21,8 C 6,6 C 65 % 1015,9 hPa 0,0 l/m 5,6 km/h (1 Bft) S-SO 157 10 min 0,5 C 6,6 C 11,6 km/h (2 Bft)
19.11.2019 09:50 21,4 C 6,4 C 66 % 1015,9 hPa 0,0 l/m 5,1 km/h (1 Bft) S-SO 157 10 min 0,5 C 6,4 C 12,2 km/h (2 Bft)
19.11.2019 09:40 21,1 C 6,2 C 67 % 1015,1 hPa 0,0 l/m 5,6 km/h (1 Bft) S-SO 157 0 min 0,5 C 6,2 C 8,7 km/h (2 Bft)
19.11.2019 09:30 20,8 C 5,7 C 69 % 1015,1 hPa 0,0 l/m 5,6 km/h (1 Bft) S 180 0 min 0,5 C 5,7 C 5,3 km/h (1 Bft)
19.11.2019 09:20 20,6 C 5,4 C 70 % 1014,9 hPa 0,0 l/m 5,1 km/h (1 Bft) S 180 0 min 0,4 C 5,4 C 2,7 km/h (1 Bft)
19.11.2019 09:10 20,5 C 5,1 C 70 % 1014,9 hPa 0,0 l/m 6,1 km/h (2 Bft) O-NO 67 0 min 0,1 C 5,1 C 5,5 km/h (1 Bft)
19.11.2019 09:00 20,4 C 5,1 C 71 % 1014,6 hPa 0,0 l/m 6,1 km/h (2 Bft) S 180 0 min 0,3 C 5,1 C 7,2 km/h (2 Bft)
19.11.2019 08:50 20,4 C 4,9 C 72 % 1014,6 hPa 0,0 l/m 7,7 km/h (2 Bft) S 180 0 min 0,3 C 3,8 C 5,1 km/h (1 Bft)
19.11.2019 08:40 20,5 C 4,7 C 72 % 1014,1 hPa 0,0 l/m 7,9 km/h (2 Bft) S-SO 157 0 min 0,1 C 3,4 C 11,3 km/h (2 Bft)
19.11.2019 08:30 20,6 C 4,5 C 73 % 1014,1 hPa 0,0 l/m 7,6 km/h (2 Bft) S-SO 157 0 min 0,1 C 3,4 C 10,1 km/h (2 Bft)
19.11.2019 08:20 20,5 C 4,4 C 73 % 1013,9 hPa 0,0 l/m 7,9 km/h (2 Bft) SW 225 0 min -0,0 C 3,1 C 8,9 km/h (2 Bft)
19.11.2019 08:10 20,5 C 4,2 C 74 % 1013,9 hPa 0,0 l/m 7,7 km/h (2 Bft) O-SO 112 0 min -0,0 C 3,0 C 10,1 km/h (2 Bft)
19.11.2019 08:00 20,5 C 4,2 C 74 % 1013,4 hPa 0,0 l/m 7,6 km/h (2 Bft) SO 135 0 min -0,0 C 3,1 C 8,9 km/h (2 Bft)
19.11.2019 07:50 20,4 C 4,1 C 74 % 1013,4 hPa 0,0 l/m 7,2 km/h (2 Bft) S-SO 157 0 min -0,1 C 3,4 C 8,4 km/h (2 Bft)
19.11.2019 07:40 20,4 C 3,9 C 74 % 1013,2 hPa 0,0 l/m 5,5 km/h (1 Bft) SO 135 0 min -0,3 C 3,9 C 14,8 km/h (3 Bft)
19.11.2019 07:30 20,2 C 3,9 C 74 % 1013,2 hPa 0,0 l/m 5,5 km/h (1 Bft) SO 135 0 min -0,3 C 3,9 C 3,2 km/h (1 Bft)
19.11.2019 07:20 20,3 C 3,9 C 74 % 1013,0 hPa 0,0 l/m 5,1 km/h (1 Bft) SO 135 0 min -0,3 C 3,9 C 12,1 km/h (2 Bft)
19.11.2019 07:10 20,3 C 3,9 C 74 % 1013,0 hPa 0,0 l/m 4,8 km/h (1 Bft) SO 135 0 min -0,3 C 3,9 C 7,1 km/h (2 Bft)
19.11.2019 07:00 20,3 C 4,0 C 74 % 1012,9 hPa 0,0 l/m 6,3 km/h (2 Bft) SO 135 0 min -0,2 C 4,0 C 6,4 km/h (2 Bft)
19.11.2019 06:50 20,2 C 3,9 C 75 % 1012,9 hPa 0,0 l/m 5,1 km/h (1 Bft) SW 225 0 min -0,1 C 3,9 C 6,4 km/h (2 Bft)
19.11.2019 06:40 20,3 C 3,8 C 74 % 1012,9 hPa 0,0 l/m 2,4 km/h (1 Bft) O-SO 112 0 min -0,4 C 3,8 C 3,2 km/h (1 Bft)
19.11.2019 06:30 20,3 C 3,9 C 74 % 1012,9 hPa 0,0 l/m 3,4 km/h (1 Bft) SW 225 0 min -0,3 C 3,9 C 3,9 km/h (1 Bft)
19.11.2019 06:20 20,2 C 3,8 C 74 % 1013,0 hPa 0,0 l/m 2,9 km/h (1 Bft) O-SO 112 0 min -0,4 C 3,8 C 5,1 km/h (1 Bft)
19.11.2019 06:10 20,4 C 3,6 C 73 % 1013,0 hPa 0,0 l/m 1,1 km/h (1 Bft) SW 225 0 min -0,8 C 3,6 C 1,9 km/h (1 Bft)
19.11.2019 06:00 20,4 C 4,2 C 71 % 1012,6 hPa 0,0 l/m 2,7 km/h (1 Bft) W 270 0 min -0,6 C 4,2 C 4,2 km/h (1 Bft)
19.11.2019 05:50 20,4 C 4,7 C 71 % 1012,6 hPa 0,0 l/m 3,9 km/h (1 Bft) SW 225 0 min -0,1 C 4,7 C 8,2 km/h (2 Bft)
19.11.2019 05:40 20,4 C 4,9 C 70 % 1011,9 hPa 0,0 l/m 6,3 km/h (2 Bft) SO 135 0 min -0,1 C 4,9 C 2,7 km/h (1 Bft)
19.11.2019 05:30 20,5 C 4,8 C 70 % 1011,9 hPa 0,0 l/m 8,0 km/h (2 Bft) S-SO 157 0 min -0,2 C 3,4 C 5,1 km/h (1 Bft)
19.11.2019 05:20 20,5 C 4,9 C 71 % 1012,1 hPa 0,0 l/m 8,9 km/h (2 Bft) O-SO 112 0 min 0,1 C 2,8 C 8,2 km/h (2 Bft)
19.11.2019 05:10 20,5 C 4,7 C 71 % 1012,1 hPa 0,0 l/m 5,6 km/h (1 Bft) O-NO 67 0 min -0,1 C 4,7 C 6,4 km/h (2 Bft)
19.11.2019 05:00 20,5 C 4,7 C 71 % 1012,4 hPa 0,0 l/m 3,9 km/h (1 Bft) S-SW 202 0 min -0,1 C 4,7 C 3,1 km/h (1 Bft)
19.11.2019 04:50 20,6 C 5,0 C 69 % 1012,4 hPa 0,0 l/m 4,0 km/h (1 Bft) N-NO 22 0 min -0,2 C 5,0 C 0,0 km/h (0 Bft)
19.11.2019 04:39 20,6 C 5,0 C 70 % 1012,3 hPa 0,0 l/m 6,0 km/h (2 Bft) W 270 0 min -0,0 C 5,0 C 6,6 km/h (2 Bft)
19.11.2019 04:30 20,6 C 4,9 C 70 % 1012,3 hPa 0,0 l/m 5,0 km/h (1 Bft) W-NW 292 0 min -0,1 C 4,9 C 25,4 km/h (4 Bft)
19.11.2019 04:20 20,6 C 5,0 C 70 % 1011,9 hPa 0,0 l/m 4,8 km/h (1 Bft) O-SO 112 0 min -0,0 C 5,0 C 5,3 km/h (1 Bft)
19.11.2019 04:10 20,7 C 5,1 C 69 % 1011,9 hPa 0,0 l/m 4,3 km/h (1 Bft) O-SO 112 0 min -0,1 C 5,1 C 5,3 km/h (1 Bft)
19.11.2019 04:00 20,7 C 5,1 C 69 % 1011,9 hPa 0,0 l/m 5,3 km/h (1 Bft) S-SO 157 0 min -0,1 C 5,1 C 3,7 km/h (1 Bft)
19.11.2019 03:50 20,7 C 5,0 C 70 % 1011,9 hPa 0,0 l/m 2,6 km/h (1 Bft) O-SO 112 0 min -0,0 C 5,0 C 13,5 km/h (3 Bft)
19.11.2019 03:40 20,7 C 5,2 C 69 % 1011,8 hPa 0,0 l/m 3,7 km/h (1 Bft) SO 135 0 min -0,0 C 5,2 C 0,0 km/h (0 Bft)
19.11.2019 03:30 20,8 C 5,3 C 69 % 1011,8 hPa 0,0 l/m 5,8 km/h (2 Bft) SO 135 0 min 0,1 C 5,3 C 25,3 km/h (4 Bft)
19.11.2019 03:20 20,8 C 5,3 C 70 % 1012,1 hPa 0,0 l/m 3,1 km/h (1 Bft) S-SO 157 0 min 0,3 C 5,3 C 3,1 km/h (1 Bft)
19.11.2019 03:10 20,8 C 5,2 C 71 % 1012,1 hPa 0,0 l/m 2,7 km/h (1 Bft) W-SW 247 0 min 0,4 C 5,2 C 2,7 km/h (1 Bft)
19.11.2019 03:00 20,8 C 5,2 C 72 % 1011,4 hPa 0,0 l/m 2,9 km/h (1 Bft) SO 135 0 min 0,6 C 5,2 C 3,1 km/h (1 Bft)
_ Min-Zeit 06:20 06:10 11:20 03:00 - 15:40 - - - 06:10 05:20 03:40
Minimum _ 20,2 C 3,6 C 59 % 1011,4 hPa - 0,0 km/h (0 Bft) - - - -0,8 C 2,8 C 0,0 km/h (0 Bft)
_ Max-Zeit 13:10 14:10 02:10 11:30 03:00 05:20 - - 09:50 20:20 14:10 04:30
Maximum _ 24,8 C 8,6 C 77 % 1018,0 hPa 0,0 l/m 8,9 km/h
O-SO (2 Bft)
- - 10 min 2,4 C 8,6 C 25,4 km/h
W-NW (4 Bft)
Durchschnitt _ 21,8 C 6,2 C 70 % 1015,0 hPa #0,0 l/m 2,6 km/h (1 Bft) SO - #0 min. 1,1 C 6,1 C 3,6 km/h (1 Bft)

©2019 Markus Bahr